Weather History for KGYY - August, 2014

Change the Weather History Date:

Saturday, August 23, 2014

  Actual Average Record
Temperature  
Mean Temperature 76 °F -  
Max Temperature 85 °F 80 °F 95 °F (1959)
Min Temperature 69 °F 63 °F 52 °F (1952)
Cooling Degree Days 12    
Growing Degree Days 26 (Base 50)    
Moisture  
Dew Point 71 °F    
Average Humidity 91    
Maximum Humidity 100    
Minimum Humidity 70    
Precipitation  
Precipitation 0.00 in - - ()
Sea Level Pressure  
Sea Level Pressure 29.99 in    
Wind  
Wind Speed 1 mph (NE)    
Max Wind Speed 17 mph    
Max Gust Speed 34 mph    
Visibility 6 miles    
Events Fog , Rain , Thunderstorm    
Averages and records for this station are not official NWS values.
T = Trace of Precipitation, MM = Missing Value Source: NWS Daily Summary

Daily Weather History Graph

Daily Weather History Graph

Search for Another Location

Airport or City:

Trip Planner

Search our weather history database for the weather conditions in past years. The results will help you decide how hot, cold, wet, or windy it might be!

Date:

Astronomy

Aug. 23, 2014 Rise Set
Actual Time 6:06 AM CDT 7:37 PM CDT
Civil Twilight 5:37 AM CDT 8:06 PM CDT
Nautical Twilight 5:02 AM CDT 8:41 PM CDT
Astronomical Twilight 4:24 AM CDT 9:18 PM CDT
Moon 4:21 AM CDT (8/23) 6:21 PM CDT (8/23)
Length of Visible Light 14h 29m
Length of Day
13h 30m
Waning Crescent, 3% of the Moon is Illuminated
Aug 23
Waning Crescent
Aug 25
New
Sep 2
First Quarter
Sep 8
Full
Sep 15
Last Quarter

Hourly Weather History & Observations

Time (CDT) Temp. Heat Index Dew Point Humidity Pressure Visibility Wind Dir Wind Speed Gust Speed Precip Events Conditions
12:15 AM 74.1 °F - 72.3 °F 94% 29.98 in 5.0 mi Calm Calm - N/A   Clear
12:35 AM 73.9 °F - 72.3 °F 95% 29.98 in 7.0 mi Calm Calm - N/A   Clear
12:55 AM 75.2 °F - 73.8 °F 95% 29.98 in 10.0 mi Calm Calm - N/A   Clear
1:15 AM 74.7 °F - 73.2 °F 95% 29.97 in 10.0 mi Calm Calm - N/A   Clear
1:35 AM 73.9 °F - 72.3 °F 95% 29.97 in 7.0 mi Calm Calm - N/A   Clear
1:55 AM 72.9 °F - 71.6 °F 96% 29.97 in 2.0 mi Calm Calm - N/A   Clear
2:15 AM 72.7 °F - 71.2 °F 95% 29.98 in 1.8 mi Calm Calm - N/A   Mist
2:55 AM 72.7 °F - 71.6 °F 96% 29.97 in 0.8 mi Calm Calm - N/A   Mist
3:15 AM 71.8 °F - 70.5 °F 96% 29.98 in 0.8 mi Calm Calm - N/A   Mist
3:35 AM 71.1 °F - 70.0 °F 96% 29.98 in 2.5 mi Calm Calm - N/A   Clear
3:55 AM 71.2 °F - 70.2 °F 96% 29.98 in 3.0 mi Calm Calm - N/A   Clear
4:15 AM 71.2 °F - 70.3 °F 97% 29.98 in 4.0 mi Calm Calm - N/A   Clear
4:45 AM 71.6 °F - 69.8 °F 94% 29.98 in 2.0 mi Calm Calm - N/A   Mist
5:45 AM 69.8 °F - 69.8 °F 100% 29.98 in 4.0 mi Calm Calm - N/A   Partly Cloudy
6:45 AM 71.6 °F - 69.8 °F 94% 29.98 in 3.0 mi Calm Calm - N/A Fog Fog
7:45 AM 75.2 °F - 75.2 °F 100% 29.99 in 5.0 mi Calm Calm - N/A   Scattered Clouds
8:45 AM 80.6 °F 86.2 °F 75.2 °F 84% 29.99 in 10.0 mi Calm Calm - N/A   Scattered Clouds
9:45 AM 82.4 °F 88.2 °F 73.4 °F 74% 29.97 in 10.0 mi Calm Calm - N/A   Mostly Cloudy
10:45 AM 84.2 °F 90.9 °F 73.4 °F 70% 30.00 in 10.0 mi Calm Calm - N/A   Mostly Cloudy
11:45 AM 84.2 °F 92.3 °F 75.2 °F 74% 30.01 in 7.0 mi Calm Calm - N/A   Mostly Cloudy
12:45 PM 82.4 °F 89.5 °F 75.2 °F 79% 30.01 in 4.0 mi NNE 9.2 mph - N/A   Haze
1:45 PM 80.6 °F 86.2 °F 75.2 °F 84% 30.01 in 5.0 mi ENE 9.2 mph - N/A   Haze
2:45 PM 80.6 °F 85.4 °F 73.4 °F 79% 30.02 in 5.0 mi NNE 9.2 mph - N/A Thunderstorm Haze
3:00 PM 75.2 °F - 68.0 °F 78% 30.07 in 1.5 mi WNW 17.3 mph 34.5 mph N/A Rain , Thunderstorm Thunderstorms and Rain
4:45 PM 71.6 °F - 69.8 °F 94% 29.94 in 10.0 mi East 11.5 mph - N/A Rain Light Rain
5:45 PM 71.6 °F - 69.8 °F 94% 29.90 in 10.0 mi ESE 11.5 mph 25.3 mph N/A   Mostly Cloudy
7:45 PM 71.6 °F - 69.8 °F 94% 29.94 in 10.0 mi North - - N/A   Mostly Cloudy
8:45 PM 73.4 °F - 69.8 °F 88% 29.98 in 10.0 mi North - - N/A   Mostly Cloudy
9:15 PM 72.5 °F - 70.3 °F 93% 29.99 in 7.0 mi Calm Calm - N/A   Clear
9:35 PM 72.1 °F - 70.3 °F 94% 29.99 in 7.0 mi Calm Calm - N/A   Clear
9:45 PM 71.6 °F - 69.8 °F 94% 29.99 in 10.0 mi Calm Calm - N/A   Mostly Cloudy
9:55 PM 71.6 °F - 70.0 °F 95% 30.00 in 5.0 mi Calm Calm - N/A   Clear
10:15 PM 71.8 °F - 70.3 °F 95% 30.01 in 5.0 mi Calm Calm - N/A   Clear
10:35 PM 71.6 °F - 70.2 °F 95% 30.01 in 1.2 mi Calm Calm - N/A   Mist
10:55 PM 71.6 °F - 70.2 °F 95% 30.01 in 4.0 mi Calm Calm - N/A   Clear
11:15 PM 71.6 °F - 70.2 °F 95% 30.01 in 5.0 mi Calm Calm - N/A   Clear
11:35 PM 70.7 °F - 69.6 °F 96% 30.01 in 5.0 mi Calm Calm - N/A   Clear
11:55 PM 70.0 °F - 68.7 °F 96% 30.01 in 4.0 mi Calm Calm - N/A   Clear